SB KEPS @ AMSAT $ORB13010.N 2Line Orbital Elements 13010.AMSAT
HR AMSAT ORBITAL ELEMENTS FOR AMATEUR SATELLITES IN NASA FORMAT FROM WA5QGD FORT WORTH,TX January 10, 2013 BID: ORB13010.N
DECODE 2-LINE ELSETS WITH THE FOLLOWING KEY: 1 AAAAAU 00 0 0 BBBBB.BBBBBBBB .CCCCCCCC 00000-0 00000-0 0 DDDZ 2 AAAAA EEE.EEEE FFF.FFFF GGGGGGG HHH.HHHH III.IIII JJ.JJJJJJJJKKKKKZ KEY: A-CATALOGNUM B-EPOCHTIME C-DECAY D-ELSETNUM E-INCLINATION F-RAAN G-ECCENTRICITY H-ARGPERIGEE I-MNANOM J-MNMOTION K-ORBITNUM Z-CHECKSUM
TO ALL RADIO AMATEURS BT
AO-07 1 07530U 74089B 13009.55462236 -.00000063 00000-0 -12302-3 0 5784 2 07530 101.4193 004.9040 0011638 237.7137 269.1084 12.53594076745909 FO-29 1 24278U 96046B 13009.87425999 .00000039 00000-0 77543-4 0 223 2 24278 098.5759 089.4669 0350004 214.1555 143.6620 13.52995061809904 SO-33 1 25509U 98061B 13009.05078223 .00000290 00000-0 43247-4 0 4074 2 25509 031.4333 248.5309 0351995 204.9134 265.0582 14.28950288742116 RS-22 1 27939U 03042A 13010.54551110 .00000573 00000-0 11709-3 0 713 2 27939 097.7978 206.6167 0012967 332.2427 027.8081 14.64284817496229 VO-52 1 28650U 05017B 13010.09606427 .00001469 00000-0 18355-3 0 3138 2 28650 097.5794 036.7663 0027398 080.9874 279.4497 14.83495788415649 HO-68 1 36122U 09072B 13010.71530118 -.00000044 00000-0 00000 0 0 1803 2 36122 100.3322 071.6020 0007658 357.5371 002.5700 13.16301368147693 UO-11 1 14781U 84021B 13010.19215136 .00001114 00000-0 15146-3 0 728 2 14781 097.9257 073.6068 0010222 085.4658 274.7721 14.80718957550555 AO-16 1 20439U 90005D 13009.43679104 .00000172 00000-0 79739-4 0 6489 2 20439 098.4567 313.2868 0009783 267.2343 241.8911 14.32128390199518 LO-19 1 20442U 90005G 13009.42858539 .00000156 00000-0 73377-4 0 5802 2 20442 098.4246 315.5813 0010782 257.4790 250.5803 14.32342547199709 AO-27 1 22825U 93061C 13008.89697565 .00000140 00000-0 71880-4 0 2867 2 22825 098.6020 314.7594 0008959 042.8858 349.2966 14.29524156 5873 IO-26 1 22826U 93061D 13009.50295694 .00000155 00000-0 77379-4 0 418 2 22826 098.5964 315.6786 0009350 034.5854 075.0121 14.29804126 6082 GO-32 1 25397U 98043D 13009.86736300 .00000243 00000-0 12566-3 0 9695 2 25397 098.3894 344.6969 0002009 058.5703 301.5652 14.23317411753429 NO-44 1 26931U 01043C 13010.78907410 .00000050 00000-0 51488-4 0 2325 2 26931 067.0531 305.2506 0004714 262.2690 097.7877 14.29878004588929 SO-50 1 27607U 02058C 13010.37300367 .00000875 00000-0 15360-3 0 9630 2 27607 064.5583 024.5074 0065776 205.5216 154.2622 14.72724519540473 CO-55 1 27844U 03031E 13009.01428307 .00000274 00000-0 14629-3 0 5512 2 27844 098.7031 020.4017 0009311 354.8017 039.0675 14.21143008494125 CO-57 1 27848U 03031J 13010.04077543 .00000334 00000-0 17474-3 0 5005 2 27848 098.7115 020.8441 0009261 357.7646 035.8702 14.20879163494202 AO-51 1 28375U 04025K 13009.44634323 .00000112 00000-0 46138-4 0 4588 2 28375 098.1772 331.4701 0083632 135.7584 225.0332 14.41052781448472 CP3 1 31129U 07012N 13009.57167850 .00000761 00000-0 18133-3 0 3614 2 31129 097.8865 011.2757 0100387 200.4514 159.2653 14.53418833303950 CO-65 1 32785U 08021C 13010.22165664 .00002306 00000-0 28605-3 0 5219 2 32785 097.7742 072.1240 0015893 105.3713 286.8390 14.83513626254450 PRISM 1 33493U 09002B 13010.86974210 .00002879 00000-0 34268-3 0 4318 2 33493 098.1948 162.9218 0018139 347.0980 012.9807 14.85094535214564 SOHLA-1 1 33496U 09002E 13009.21747463 .00000503 00000-0 91907-4 0 9384 2 33496 098.1202 125.8304 0007861 107.2102 314.0899 14.70160834212516 SO-67 1 35870U 09049F 13010.96275135 .00004859 00000-0 19366-3 0 6876 2 35870 097.2109 045.3540 0002905 124.2157 329.9787 15.25656509184273 TISAT-1 1 36799U 10035E 13010.97817480 .00001954 00000-0 24837-3 0 7031 2 36799 098.0464 094.7463 0014019 215.1224 144.9083 14.82742115135274 STUDSAT 1 36801U 10035G 13010.21796304 .00005987 00000-0 68113-3 0 5654 2 36801 098.0559 095.8516 0011398 203.0002 157.0708 14.86559693135259 FO-69 1 37227U 0 13010.19227088 .00000516 00000-0 80270-4 0 00357 2 37227 071.9696 215.0814 0018203 290.8941 069.0281 14.77334618005576 FO-70 1 37380U 0 13010.50403654 .00000580 00000-0 89769-4 0 00350 2 37380 071.9725 215.2175 0018826 287.8837 072.0299 14.77078310005692 ALMASAT-1 1 38078U 12006B 13010.79184429 .00020762 00000-0 54024-3 0 9034 2 38078 069.4758 204.1487 0724321 347.1057 011.2364 14.17905590 46883 XATCOBEO 1 38082U 12006F 13010.93246231 .00046866 00000-0 10145-2 0 8414 2 38082 069.4785 192.7653 0650328 340.8200 016.9420 14.37282650 47209 NOAA-10 1 16969U 86073A 13010.13770272 .00000144 00000-0 76061-4 0 2052 2 16969 098.5623 041.2962 0011771 353.4661 038.3834 14.27607831369393 NOAA-11 1 19531U 88089A 13010.19551804 .00000069 00000-0 57963-4 0 1980 2 19531 098.7215 096.8942 0010806 358.3402 034.9526 14.14998827253788 NOAA-12 1 21263U 91032A 13010.24687747 .00000113 00000-0 66626-4 0 6777 2 21263 098.7120 036.7736 0013235 322.7838 037.2424 14.25541079126056 MET-3/5 1 21655U 91056A 13009.17378428 .00000393 00000-0 98832-3 0 5920 2 21655 082.5564 006.6447 0013880 162.9889 197.1701 13.17039162 29001 MET-2/21 1 22782U 93055A 13010.21414826 .00000012 00000-0 -22941-5 0 6338 2 22782 082.5470 228.2462 0021287 292.8692 220.5367 13.83696937977792 OKEAN-4 1 23317U 94066A 13010.97818730 .00001037 00000-0 12062-3 0 1075 2 23317 082.5382 196.8802 0022383 029.4855 330.7618 14.84194318985622 NOAA-14 1 23455U 94089A 13010.32294650 .00000038 00000-0 43171-4 0 1583 2 23455 098.8159 097.0944 0010334 085.3551 274.8802 14.13889131930060 NOAA-15 1 25338U 98030A 13010.87551679 .00000191 00000-0 81362-4 0 5670 2 25338 098.7102 002.0477 0010004 222.2746 137.8139 14.25166893762440 RESURS 1 25394U 98043A 13009.54442919 .00000019 00000-0 26126-4 0 2789 2 25394 098.3438 353.1499 0001515 042.6362 106.1749 14.24316594753775 FENGYUN1 1 25730U 99025A 13009.49023447 .00002669 00000-0 15332-2 0 7816 2 25730 098.8656 331.1215 0021870 128.7537 020.4457 14.10025613703676 OKEAN-0 1 25860U 99039A 13009.53453256 .00000646 00000-0 10476-3 0 8375 2 25860 097.9694 334.3329 0000781 089.4308 021.1841 14.74445614724978 NOAA-16 1 26536U 00055A 13010.82688155 .00000141 00000-0 75889-4 0 460 2 26536 099.0672 061.8618 0010094 216.0275 144.0704 14.12826715634352 NOAA-17 1 27453U 02032A 13010.86521093 .00000207 00000-0 89049-4 0 9822 2 27453 098.3214 033.2327 0010697 267.8109 092.2333 14.24529919548326 NOAA-18 1 28654U 05018A 13010.87234341 .00000280 00000-0 15383-3 0 4646 2 28654 099.0770 337.0070 0013727 292.8608 067.1580 14.11757276393861 NOAA-19 1 33591U 09005A 13010.85609715 .00000270 00000-0 14908-3 0 6497 2 33591 098.8868 314.2908 0014389 151.6547 208.5880 14.11444456202303 HUBBLE 1 20580U 90037B 13010.98462545 .00001635 00000-0 10573-3 0 1516 2 20580 028.4698 223.0320 0003492 120.4576 239.6397 15.03196328 46017 ISS 1 25544U 98067A 13010.92163891 .00012264 00000-0 19859-3 0 9983 2 25544 051.6445 169.5791 0015908 143.5609 216.6990 15.52008169214430 CO-58 1 28895U 05043F 13010.15209605 .00000643 00000-0 14022-3 0 3761 2 28895 097.8874 233.0176 0016976 217.2504 142.7483 14.60923064383872 FALCON 1 30776U 07006E 13009.65927274 .00005928 00000-0 36654-3 0 5257 2 30776 035.4320 094.1149 0001241 352.5815 126.4147 15.09303740321448 MAST 1 31126U 07012K 13010.45901250 .00000585 00000-0 13990-3 0 6545 2 31126 097.8746 015.4594 0093425 183.8710 176.1784 14.54404636304395 CAPE1 1 31130U 07012P 13010.52562411 .00000720 00000-0 17279-3 0 6668 2 31130 097.8889 011.8401 0100548 198.4135 161.3413 14.53264893303889 COMPASS 1 32787U 08021E 13009.70128728 .00002659 00000-0 31828-3 0 5135 2 32787 097.7751 072.2746 0016427 104.4365 041.6130 14.84867693254446 AAUSAT2 1 32788U 08021F 13009.75059154 .00002509 00000-0 29774-3 0 5048 2 32788 097.7760 072.8326 0015874 104.1661 013.6105 14.85272066254488 DO-64 1 32789U 08021G 13010.20730406 .00006120 00000-0 68112-3 0 5263 2 32789 097.7902 076.1997 0015493 098.1779 295.2596 14.87389348254630 CO-66 1 32791U 08021J 13009.22180376 .00002114 00000-0 25887-3 0 5015 2 32791 097.7754 071.3579 0016813 106.8113 285.4285 14.84125923254299 RS-30 1 32953U 08025A 13010.86824422 .00000010 00000-0 00000 0 0 4915 2 32953 082.5008 166.0030 0018408 213.6150 146.3767 12.43030736210367 METEOR-M 1 35865U 09049A 13010.66940201 -.00000022 00000-0 97200-5 0 1273 2 35865 098.6268 066.7904 0002531 152.2886 207.8425 14.21877980172086 RS-38 1 35869U 09049E 13010.65854618 .00000029 00000-0 32569-4 0 947 2 35869 098.6215 066.7353 0004452 161.4863 198.6474 14.22108026172104 JUGNU 1 37839U 11058B 13007.88495936 .00000620 00000-0 19019-3 0 3094 2 37839 019.9583 198.0869 0018962 320.1732 039.7205 14.12117894 64219 SRMSAT 1 37841U 11058D 13010.48294713 .00000264 00000-0 00000 0 0 3097 2 37841 019.9691 191.3088 0012188 304.0204 055.9156 14.10192794 64484 RAX-2 1 37853U 11061D 13010.19591469 .00006756 00000-0 52191-3 0 3948 2 37853 101.7071 150.8865 0239862 119.8962 242.6298 14.82101807 65033 AUBIESAT 1 37854U 11061E 13010.49097939 .00007624 00000-0 57682-3 0 3939 2 37854 101.7089 151.8784 0240155 118.0289 244.5451 14.82690903 65081 HRBE 1 37855U 11061F 13009.92397474 .00007105 00000-0 54052-3 0 3890 2 37855 101.7101 150.9164 0241046 119.9928 242.5428 14.82420885 64990 RS-39 1 38051U 11062C 13010.89314521 .00010939 00000-0 39996-3 0 650 2 38051 051.6362 247.1701 0013492 066.0148 044.4713 15.28502012 53690 E-STAR 1 38079U 12006C 13010.72956998 .00038483 00000-0 85409-3 0 7944 2 38079 069.4784 195.7365 0673033 342.5549 015.3389 14.31977420 47106 GOLIAT 1 38085U 12006J 13010.68374381 .00037342 00000-0 82869-3 0 7553 2 38085 069.4821 197.0043 0680152 343.2541 014.7044 14.30469635 47062 HORYU-2 1 38340U 12025D 13010.40067183 .00001501 00000-0 25543-3 0 3175 2 38340 098.1979 316.8989 0013539 036.2617 323.9543 14.70531591 34926 RS-40 1 38736U 12041D 13010.70730804 .00000010 00000-0 00000 0 0 1586 2 38736 082.4767 253.3226 0018612 315.7172 044.2416 12.42649668 20685 PROITERES 1 38756U 12047B 13010.91094991 .00000556 00000-0 92541-4 0 4019 2 38756 098.2714 084.9721 0011593 245.9742 114.0257 14.74038576 18223 AENEAS 1 38760U 0 13010.30862094 .00004933 00000-0 45118-3 0 00386 2 38760 064.6736 037.6222 0216021 256.7016 100.9927 14.80037176005582 CSSWE-D 1 38761U 0 13010.31251606 .00004126 00000-0 38000-3 0 00352 2 38761 064.6743 037.6425 0217594 256.6983 100.9785 14.79845475005606 CXBN-E 1 38762U 0 13010.30523402 .00005383 00000-0 48699-3 0 00360 2 38762 064.6804 037.6257 0218357 256.1531 101.5196 14.79997447005677 OBJECT F 1 38763U 0 13010.30916126 .00003917 00000-0 36085-3 0 00356 2 38763 064.6735 037.6208 0218061 256.7365 100.9342 14.79862223005613 CINEMA-G 1 38764U 0 13010.30690144 .00004197 00000-0 38547-3 0 00341 2 38764 064.6741 037.6060 0217613 256.7942 100.8813 14.79914111005571 CP5 1 38765U 0 13010.36660122 .00005184 00000-0 47138-3 0 00366 2 38765 064.6738 037.3618 0216618 256.5143 101.1776 14.80096794005582 RAIKO 1 38852U 98067CN 13009.88145362 .00044688 00000-0 58132-3 0 1046 2 38852 051.6370 172.3721 0016959 134.3953 225.8440 15.58146824 15062 FITSAT 1 1 38853U 98067CP 13010.48054352 .00056196 00000-0 69131-3 0 1030 2 38853 051.6345 168.8741 0014129 152.4389 207.7418 15.59577046 15214 TechEdSat 1 38854U 98067CQ 13010.45222569 .00086325 00000-0 93119-3 0 1136 2 38854 051.6276 167.9275 0013428 159.2734 200.8913 15.62816432 15224 F 1 1 38855U 98067CR 13010.46310631 .00083376 00000-0 91295-3 0 1176 2 38855 051.6261 167.9957 0013300 158.5014 201.6844 15.62449500 15116 WeWish 1 38856U 98067CS 13010.46361259 .00173978 00000-0 13820-2 0 1343 2 38856 051.6392 165.7471 0013630 162.3936 197.7583 15.70059534 15142 /EX